Location: Jack Pine
(43.3260°N, 110.4341°W)
Time: 00:31:16
(UTC+00:00)

Envisat - Visible Passes

Search period start: 27 January 2022 00:00
Search period end: 06 February 2022 00:00
Orbit: 764 x 766 km, 98.2° (Epoch: 26 January)

Date Brightness Start Highest point End Pass type
(mag) Time Alt. Az. Time Alt. Az. Time Alt. Az.
27 Jan 3.3 12:05:01 10° NNE 12:10:04 63° E 12:15:06 10° S visible
27 Jan 4.3 13:45:15 10° NNW 13:48:34 18° WNW 13:51:54 10° WSW visible
28 Jan 6.5 01:04:13 10° W 01:05:14 11° W 01:06:14 10° WNW visible
28 Jan 4.8 11:28:38 10° NE 11:33:02 29° E 11:37:24 10° SSE visible
28 Jan 3.5 13:07:28 10° N 13:12:04 35° WNW 13:16:38 10° SW visible
29 Jan 5.8 10:53:24 10° ENE 10:55:47 13° E 10:58:09 10° ESE visible
29 Jan 2.8 12:30:16 10° N 12:35:21 76° WNW 12:40:25 10° SSW visible
30 Jan 3.8 11:53:30 10° NNE 11:58:27 50° E 12:03:22 10° S visible
30 Jan 4.1 13:33:17 10° NNW 13:37:07 22° WNW 13:40:56 10° WSW visible
31 Jan 5.1 11:17:20 10° NE 11:21:20 23° E 11:25:19 10° SE visible
31 Jan 3.2 12:55:43 10° N 13:00:32 44° WNW 13:05:20 10° SW visible
01 Feb 2.9 12:18:39 10° NNE 12:23:46 86° ESE 12:28:51 10° SSW visible
01 Feb 4.6 13:59:39 10° NNW 14:02:03 13° WNW 14:04:27 10° W visible
02 Feb 4.2 11:42:02 10° NNE 11:46:48 39° E 11:51:32 10° SSE visible
02 Feb 3.9 13:21:24 10° N 13:25:37 27° WNW 13:29:50 10° WSW visible
03 Feb 5.5 11:06:10 10° NE 11:09:37 18° E 11:13:05 10° SE visible
03 Feb 3.0 12:44:01 10° N 12:48:59 56° WNW 12:53:56 10° SSW visible
04 Feb 3.2 12:07:05 10° NNE 12:12:10 68° ESE 12:17:13 10° S visible
04 Feb 4.4 13:47:28 10° NNW 13:50:37 17° WNW 13:53:45 10° W visible
05 Feb 4.7 11:30:38 10° NNE 11:35:08 31° E 11:39:36 10° SSE visible
05 Feb 3.6 13:09:35 10° N 13:14:07 33° WNW 13:18:38 10° SW visible
